This is the latest recevied weather packets stored in our database for station/object IZ2MHJ-3. If no packets are shown the sender has not sent any weather packets the latest 10 day(s).
| Time | Temp. | Humidity | Pressure | Rain* | Wind** | Luminosity | Snow |
|---|---|---|---|---|---|---|---|
| 1788095935 | 33.33° C | 42% | 1015.7 hPa | - | - | - | - |
| 1788094735 | 33.89° C | 40% | 1015.7 hPa | - | - | - | - |
| 1788093535 | 33.89° C | 41% | 1015.9 hPa | - | - | - | - |
| 1788092334 | 36.11° C | 36% | 1015.8 hPa | - | - | - | - |
| 1788091134 | 35.56° C | 37% | 1016 hPa | - | - | - | - |
| 1788089934 | 33.33° C | 38% | 1016.3 hPa | - | - | - | - |
| 1788088733 | 32.22° C | 44% | 1016.4 hPa | - | - | - | - |
| 1788087533 | 32.22° C | 47% | 1016.6 hPa | - | - | - | - |
| 1788086333 | 33.89° C | 44% | 1016.4 hPa | - | - | - | - |
| 1788085132 | 30.56° C | 49% | 1016.9 hPa | - | - | - | - |
| 1788083932 | 31.67° C | 47% | 1017 hPa | - | - | - | - |
| 1788082732 | 31.11° C | 48% | 1017.2 hPa | - | - | - | - |
| 1788081531 | 28.89° C | 54% | 1017.6 hPa | - | - | - | - |
| 1788080331 | 29.44° C | 50% | 1017.4 hPa | - | - | - | - |
| 1788079131 | 29.44° C | 55% | 1017.5 hPa | - | - | - | - |
| 1788077931 | 28.33° C | 57% | 1017.5 hPa | - | - | - | - |
| 1788076730 | 27.22° C | 60% | 1017.6 hPa | - | - | - | - |
| 1788075530 | 27.78° C | 60% | 1017.5 hPa | - | - | - | - |
| 1788074330 | 27.22° C | 61% | 1017.4 hPa | - | - | - | - |
| 1788073129 | 26.67° C | 64% | 1017.4 hPa | - | - | - | - |
| 1788071929 | 25.56° C | 66% | 1017.4 hPa | - | - | - | - |
| 1788070729 | 25.56° C | 65% | 1017.3 hPa | - | - | - | - |
| 1788069528 | 25° C | 67% | 1017.3 hPa | - | - | - | - |
| 1788068328 | 23.33° C | 73% | 1017.3 hPa | - | - | - | - |
| 1788067128 | 22.22° C | 77% | 1017.2 hPa | - | - | - | - |
* Rain since midnight (hover to see other rain measurements)
** Current wind speed in m/s (hover to see current wind gust speed)